Find UND ROADS 2

NORAD ID: 64549 Int'l Des: 2025-135 Owner: UND Country: US operational
LEOCIRCULARRETROGRADESSO

实时位置

正在加载3D地球...

关于 UND ROADS 2

正在加载描述...

即将过境

Passes for default location (London). Set your location on the main map for personalized predictions.

高度历史

Loading altitude history...

两行轨道根数

1 64549U 25135X 26106.24624552 .00003862 00000-0 16689-3 0 9991
2 64549 97.4699 222.6834 0001040 27.7983 332.3309 15.23083829 45487
Epoch: Apr 16, 2026 • Age: 7 hours

当前状态

高度 507.9 km
速度 7.61 km/s
星下点 -28.24°S, 2.65°W
发射日期 Jun 23, 2025
运行时间 0.8 years
类型 other

技术详情

分类 Payload
质量 5.40 kg
干质量 5.40 kg
总质量 5.40 kg
长度 0.30 m
直径 0.10 m
跨度 0.40 m
形状 Box
制造商 UND
平台类型 Cubesat 3U
阶段状态 In Orbit
所有者/国家 UND/US

Most Searched